TimeCST,TemperatureF,Dew PointF,Humidity,Sea Level PressureIn,VisibilityMPH,Wind Direction,Wind SpeedMPH,Gust SpeedMPH,PrecipitationIn,Events,Conditions,WindDirDegrees,DateUTC
12:53 AM,36.0,25.0,64,30.12,10.0,NNE,9.2,-,N/A,,Clear,20,2013-02-19 06:53:00
1:53 AM,36.0,24.1,62,30.13,10.0,NNE,8.1,-,N/A,,Clear,30,2013-02-19 07:53:00
2:53 AM,35.1,24.1,64,30.14,10.0,NE,9.2,-,N/A,,Clear,40,2013-02-19 08:53:00
3:53 AM,34.0,24.1,67,30.15,10.0,NNE,6.9,-,N/A,,Clear,30,2013-02-19 09:53:00
4:53 AM,34.0,24.1,67,30.17,10.0,ENE,5.8,-,N/A,,Clear,60,2013-02-19 10:53:00
5:53 AM,34.0,24.1,67,30.19,10.0,NE,10.4,-,N/A,,Clear,50,2013-02-19 11:53:00
6:53 AM,32.0,23.0,69,30.24,10.0,NE,4.6,-,N/A,,Clear,40,2013-02-19 12:53:00
7:53 AM,34.0,25.0,70,30.27,10.0,Calm,Calm,-,N/A,,Clear,0,2013-02-19 13:53:00
8:53 AM,41.0,27.0,57,30.28,10.0,East,6.9,-,N/A,,Clear,80,2013-02-19 14:53:00
9:53 AM,45.0,26.1,48,30.28,10.0,ESE,12.7,-,N/A,,Clear,120,2013-02-19 15:53:00
10:53 AM,48.0,25.0,41,30.29,10.0,SE,13.8,-,N/A,,Clear,130,2013-02-19 16:53:00
12:53 PM,55.0,23.0,29,30.24,10.0,SE,11.5,19.6,N/A,,Clear,130,2013-02-19 18:53:00
1:53 PM,57.0,21.0,25,30.19,10.0,ESE,11.5,-,N/A,,Clear,110,2013-02-19 19:53:00
2:53 PM,57.9,19.9,23,30.14,10.0,ESE,16.1,23.0,N/A,,Clear,120,2013-02-19 20:53:00
3:53 PM,57.9,19.0,22,30.12,10.0,East,18.4,24.2,N/A,,Clear,100,2013-02-19 21:53:00
4:53 PM,55.9,19.0,24,30.12,10.0,ESE,17.3,-,N/A,,Clear,120,2013-02-19 22:53:00
6:53 PM,50.0,23.0,35,30.12,10.0,ESE,11.5,-,N/A,,Clear,110,2013-02-20 00:53:00
7:53 PM,48.9,24.1,38,30.12,10.0,ESE,11.5,-,N/A,,Clear,110,2013-02-20 01:53:00
8:53 PM,48.9,25.0,39,30.12,10.0,ESE,11.5,-,N/A,,Mostly Cloudy,110,2013-02-20 02:53:00
9:53 PM,48.9,24.1,38,30.12,10.0,ESE,15.0,-,N/A,,Overcast,110,2013-02-20 03:53:00
10:53 PM,48.0,24.1,39,30.10,10.0,ESE,15.0,-,N/A,,Overcast,110,2013-02-20 04:53:00
11:53 PM,48.0,27.0,44,30.09,10.0,SE,16.1,-,0.00,Rain,Light Rain,140,2013-02-20 05:53:00